Location: Unspecified
(43.4354°N, 0.0000°E)
Time: 09:09:11
(UTC+00:00)

Tiros 1 despin weight - Pass Details

Date: 26 June 2019
Orbit: 594 x 642 km, 48.2° (Epoch: 17 July)

Event Time Altitude Azimuth Distance (km) Brightness Sun altitude
Rises 02:31:28 0° 293° (WNW) 2,838 ? -15.0°
Reaches altitude 10° 02:33:46 10° 294° (WNW) 1,931 ? -14.7°
Maximum altitude 02:38:11 85° 21° (NNE) 600 ? -14.3°
Drops below altitude 10° 02:42:36 10° 113° (ESE) 1,922 ? -13.8°
Sets 02:44:53 0° 114° (ESE) 2,825 ? -13.5°
